Weather History for Spearfish, SD

Change the Weather History Date:

Wednesday, January 2, 2013

  Actual Average (KEFC) Record (KEFC)
Temperature  
Mean Temperature 22 °F -  
Max Temperature 26 °F 35 °F 59 °F (1998)
Min Temperature 17 °F 10 °F -22 °F (1968)
Degree Days  
Heating Degree Days 44    
Moisture  
Dew Point 17 °F    
Average Humidity 79    
Maximum Humidity 93    
Minimum Humidity 59    
Precipitation  
Precipitation 3.88 in - - ()
Sea Level Pressure  
Sea Level Pressure 30.12 in    
Wind  
Wind Speed 18 mph (WNW)    
Max Wind Speed 26 mph    
Max Gust Speed 36 mph    
Visibility 7 miles    
Events Rain , Snow    
Averages and records for this station are not official NWS values.
T = Trace of Precipitation, MM = Missing Value Source: NWS Daily Summary

Daily Weather History Graph

Daily Weather History Graph

Search for Another Location

Airport:

Trip Planner

Search our weather history database for the weather conditions in past years. The results will help you decide how hot, cold, wet, or windy it might be!

Date:

Astronomy

Jan. 02, 2013 Rise Set
Actual Time 8:31 AM CST 5:27 PM CST
Civil Twilight 7:58 AM CST 6:00 PM CST
Nautical Twilight 7:21 AM CST 6:37 PM CST
Astronomical Twilight 6:46 AM CST 7:12 PM CST
Moon 11:16 PM CST (1/2) 11:01 AM CST (1/2)
Length of Visible Light 10h 02m
Length of Day
8h 55m
Waning Gibbous, 75% of the Moon is Illuminated
Jan 2
Waning Gibbous
Jan 4
Last Quarter
Jan 11
New
Jan 18
First Quarter
Jan 26
Full

Hourly Weather History & Observations

Time (CST) Temp. Windchill Dew Point Humidity Pressure Visibility Wind Dir Wind Speed Gust Speed Precip Events Conditions
12:15 AM 26.6 °F 15.7 °F 24.8 °F 93% 30.05 in 3.0 mi West 12.7 mph - 0.18 in Rain Light Freezing Rain
12:35 AM 26.6 °F 14.7 °F 23.0 °F 86% 30.05 in 10.0 mi WNW 15.0 mph 19.6 mph 0.28 in Rain Light Freezing Rain
12:55 AM 26.6 °F 13.4 °F 23.0 °F 86% 30.05 in 9.0 mi WNW 18.4 mph 21.9 mph 0.31 in Rain Light Freezing Rain
1:15 AM 26.6 °F 14.3 °F 23.0 °F 86% 30.05 in 8.0 mi West 16.1 mph 24.2 mph 0.02 in Snow Light Snow
1:35 AM 26.6 °F 13.8 °F 23.0 °F 86% 30.04 in 10.0 mi WNW 17.3 mph 23.0 mph 0.02 in Snow Light Snow
1:55 AM 26.6 °F 13.4 °F 21.2 °F 80% 30.04 in 10.0 mi WNW 18.4 mph 26.5 mph 0.02 in   Overcast
2:15 AM 26.6 °F 13.1 °F 19.4 °F 74% 30.04 in 10.0 mi WNW 19.6 mph 26.5 mph N/A   Overcast
2:35 AM 26.6 °F 13.1 °F 19.4 °F 74% 30.04 in 10.0 mi West 19.6 mph 25.3 mph N/A   Mostly Cloudy
2:55 AM 26.6 °F 13.8 °F 19.4 °F 74% 30.04 in 10.0 mi WNW 17.3 mph 25.3 mph N/A   Overcast
3:15 AM 26.6 °F 12.0 °F 19.4 °F 74% 30.04 in 10.0 mi WNW 23.0 mph 32.2 mph N/A Rain Light Freezing Rain
3:35 AM 26.6 °F 13.1 °F 17.6 °F 69% 30.04 in 10.0 mi WNW 19.6 mph 27.6 mph N/A Rain Light Freezing Rain
3:55 AM 26.6 °F 12.7 °F 19.4 °F 74% 30.03 in 10.0 mi WNW 20.7 mph 27.6 mph N/A Rain Light Freezing Rain
4:15 AM 26.6 °F 12.0 °F 19.4 °F 74% 30.03 in 7.0 mi WNW 23.0 mph 32.2 mph N/A Rain Light Freezing Rain
4:35 AM 24.8 °F 9.6 °F 19.4 °F 80% 30.04 in 1.0 mi WNW 23.0 mph 34.5 mph 0.37 in Snow Light Snow
4:55 AM 26.6 °F 13.8 °F 19.4 °F 74% 30.05 in 8.0 mi WNW 17.3 mph 28.8 mph 0.59 in   Mostly Cloudy
5:15 AM 24.8 °F 10.7 °F 19.4 °F 80% 30.05 in 9.0 mi WNW 19.6 mph 28.8 mph N/A Rain Light Freezing Rain
5:35 AM 24.8 °F 10.3 °F 19.4 °F 80% 30.06 in 8.0 mi WNW 20.7 mph 27.6 mph 0.01 in Rain Light Freezing Rain
5:55 AM 24.8 °F 12.9 °F 19.4 °F 80% 30.07 in 8.0 mi West 13.8 mph 25.3 mph 0.21 in Rain Light Freezing Rain
6:15 AM 24.8 °F 11.9 °F 19.4 °F 80% 30.07 in 10.0 mi West 16.1 mph 27.6 mph N/A   Overcast
6:35 AM 24.8 °F 12.4 °F 19.4 °F 80% 30.06 in 10.0 mi West 15.0 mph 21.9 mph N/A   Overcast
6:55 AM 24.8 °F 11.9 °F 17.6 °F 74% 30.07 in 10.0 mi WNW 16.1 mph 25.3 mph N/A   Overcast
7:15 AM 24.8 °F 11.9 °F 17.6 °F 74% 30.07 in 10.0 mi WNW 16.1 mph 23.0 mph N/A   Overcast
7:35 AM 24.8 °F 11.5 °F 17.6 °F 74% 30.07 in 10.0 mi WNW 17.3 mph 25.3 mph N/A   Overcast
7:55 AM 24.8 °F 11.5 °F 17.6 °F 74% 30.06 in 10.0 mi WNW 17.3 mph 24.2 mph N/A   Overcast
8:15 AM 24.8 °F 10.7 °F 17.6 °F 74% 30.06 in 10.0 mi West 19.6 mph 23.0 mph N/A   Overcast
8:35 AM 24.8 °F 11.1 °F 17.6 °F 74% 30.06 in 2.0 mi WNW 18.4 mph 27.6 mph 0.03 in Snow Light Snow
8:55 AM 24.8 °F 12.4 °F 19.4 °F 80% 30.06 in 4.0 mi West 15.0 mph 23.0 mph 0.05 in Snow Light Snow
9:15 AM 24.8 °F 12.4 °F 17.6 °F 74% 30.07 in 10.0 mi WNW 15.0 mph 23.0 mph N/A Snow Light Snow
9:35 AM 24.8 °F 11.5 °F 15.8 °F 69% 30.07 in 10.0 mi WNW 17.3 mph 29.9 mph N/A   Scattered Clouds
9:55 AM 24.8 °F 10.3 °F 15.8 °F 69% 30.08 in 10.0 mi WNW 20.7 mph 27.6 mph N/A   Scattered Clouds
10:15 AM 24.8 °F 10.3 °F 15.8 °F 69% 30.08 in 3.0 mi WNW 20.7 mph 31.1 mph N/A   Partly Cloudy
10:55 AM 24.8 °F 11.1 °F 15.8 °F 69% 30.08 in 8.0 mi WNW 18.4 mph 31.1 mph 0.02 in Snow Light Snow
11:15 AM 24.8 °F 11.9 °F 15.8 °F 69% 30.08 in 10.0 mi WNW 16.1 mph 25.3 mph N/A   Mostly Cloudy
11:35 AM 24.8 °F 10.7 °F 14.0 °F 64% 30.07 in 8.0 mi WNW 19.6 mph 34.5 mph N/A Snow Light Snow
11:55 AM 24.8 °F 9.6 °F 14.0 °F 64% 30.06 in 7.0 mi WNW 23.0 mph 31.1 mph N/A Snow Light Snow
12:15 PM 24.8 °F 10.3 °F 14.0 °F 64% 30.06 in 10.0 mi WNW 20.7 mph 28.8 mph N/A   Mostly Cloudy
12:35 PM 24.8 °F 9.3 °F 12.2 °F 59% 30.05 in 10.0 mi WNW 24.2 mph 29.9 mph N/A   Mostly Cloudy
12:55 PM 24.8 °F 9.6 °F 12.2 °F 59% 30.05 in 9.0 mi WNW 23.0 mph 32.2 mph N/A   Scattered Clouds
1:15 PM 24.8 °F 9.0 °F 12.2 °F 59% 30.06 in 9.0 mi NW 25.3 mph 31.1 mph N/A   Partly Cloudy
1:35 PM 23.0 °F 6.9 °F 14.0 °F 68% 30.08 in 3.0 mi NW 24.2 mph 35.7 mph N/A   Mostly Cloudy
1:55 PM 19.4 °F 1.8 °F 15.8 °F 86% 30.10 in 0.2 mi NW 25.3 mph 35.7 mph 0.21 in Snow Heavy Snow
2:15 PM 19.4 °F 1.4 °F 17.6 °F 93% 30.10 in 0.2 mi NW 26.5 mph 35.7 mph 0.51 in Snow Heavy Snow
2:35 PM 19.4 °F 1.8 °F 15.8 °F 86% 30.11 in 0.5 mi WNW 25.3 mph 34.5 mph 0.69 in Snow Snow
2:55 PM 19.4 °F 3.2 °F 14.0 °F 80% 30.12 in 1.2 mi WNW 20.7 mph 31.1 mph 0.88 in Snow Light Snow
3:15 PM 19.4 °F 2.8 °F 15.8 °F 86% 30.12 in 0.5 mi WNW 21.9 mph 31.1 mph 0.50 in Snow Snow
3:35 PM 19.4 °F 4.1 °F 15.8 °F 86% 30.13 in 1.2 mi WNW 18.4 mph 27.6 mph 0.88 in Snow Light Snow
3:55 PM 19.4 °F 4.5 °F 15.8 °F 86% 30.15 in 2.5 mi NW 17.3 mph 26.5 mph 1.08 in Snow Light Snow
4:15 PM 19.4 °F 2.5 °F 15.8 °F 86% 30.15 in 3.0 mi NW 23.0 mph 29.9 mph 0.02 in Snow Light Snow
4:35 PM 19.4 °F 3.6 °F 15.8 °F 86% 30.16 in 3.0 mi WNW 19.6 mph 24.2 mph 0.07 in Snow Light Snow
4:55 PM 19.4 °F 4.5 °F 15.8 °F 86% 30.17 in 4.0 mi WNW 17.3 mph 26.5 mph 0.09 in Snow Light Snow
5:15 PM 19.4 °F 5.0 °F 15.8 °F 86% 30.17 in 1.8 mi WNW 16.1 mph 23.0 mph 0.08 in Snow Light Snow
5:35 PM 19.4 °F 5.5 °F 15.8 °F 86% 30.18 in 6.0 mi WNW 15.0 mph 26.5 mph 0.20 in Snow Light Snow
5:55 PM 19.4 °F 4.5 °F 15.8 °F 86% 30.19 in 9.0 mi NW 17.3 mph 26.5 mph 0.21 in Snow Light Snow
6:15 PM 19.4 °F 4.5 °F 15.8 °F 86% 30.19 in 9.0 mi WNW 17.3 mph 25.3 mph N/A Snow Light Snow
6:35 PM 19.4 °F 4.1 °F 15.8 °F 86% 30.20 in 9.0 mi NW 18.4 mph 27.6 mph N/A Snow Light Snow
6:55 PM 19.4 °F 4.1 °F 14.0 °F 80% 30.20 in 10.0 mi WNW 18.4 mph 23.0 mph N/A Snow Light Snow
7:15 PM 19.4 °F 3.2 °F 14.0 °F 80% 30.21 in 10.0 mi WNW 20.7 mph 27.6 mph N/A   Mostly Cloudy
7:35 PM 19.4 °F 4.5 °F 14.0 °F 80% 30.22 in 5.0 mi WNW 17.3 mph 28.8 mph 0.03 in Snow Light Snow
7:55 PM 17.6 °F 3.7 °F 14.0 °F 86% 30.22 in 4.0 mi WNW 13.8 mph 23.0 mph 0.13 in Snow Light Snow
8:15 PM 17.6 °F 3.2 °F 14.0 °F 86% 30.22 in 9.0 mi WNW 15.0 mph 21.9 mph 0.02 in Snow Light Snow
8:35 PM 19.4 °F 5.5 °F 14.0 °F 80% 30.22 in 10.0 mi WNW 15.0 mph 23.0 mph 0.03 in Snow Light Snow
8:55 PM 19.4 °F 6.6 °F 14.0 °F 80% 30.23 in 5.0 mi WNW 12.7 mph - 0.06 in Snow Light Snow
9:15 PM 19.4 °F 5.0 °F 14.0 °F 80% 30.23 in 10.0 mi NW 16.1 mph 21.9 mph N/A Snow Light Snow
9:35 PM 17.6 °F 2.2 °F 14.0 °F 86% 30.24 in 10.0 mi WNW 17.3 mph 24.2 mph 0.01 in Snow Light Snow
9:55 PM 17.6 °F 2.7 °F 14.0 °F 86% 30.24 in 10.0 mi NW 16.1 mph 20.7 mph 0.02 in Snow Light Snow
10:15 PM 17.6 °F 2.7 °F 14.0 °F 86% 30.24 in 10.0 mi NW 16.1 mph 25.3 mph N/A   Scattered Clouds
10:35 PM 17.6 °F 3.7 °F 14.0 °F 86% 30.24 in 10.0 mi WNW 13.8 mph 23.0 mph N/A   Partly Cloudy
10:55 PM 17.6 °F 3.2 °F 15.8 °F 93% 30.25 in 10.0 mi WNW 15.0 mph - N/A Snow Light Snow
11:15 PM 17.6 °F 5.0 °F 14.0 °F 86% 30.26 in 10.0 mi WNW 11.5 mph - N/A   Clear
11:35 PM 17.6 °F 5.0 °F 14.0 °F 86% 30.26 in 10.0 mi WNW 11.5 mph 17.3 mph N/A   Clear
11:55 PM 17.6 °F 2.7 °F 14.0 °F 86% 30.25 in 10.0 mi WNW 16.1 mph 19.6 mph N/A   Partly Cloudy